{"data":{"norad_id":55179,"epoch":"2026-05-25T02:32:11.832000Z","epoch_age_seconds":69893,"freshness":"FRESH","line1":"1 55179U 23004AR  26145.10569250  .00000052  00000+0  10052-3 0  9999","line2":"2 55179  87.9162  10.4249 0001936  79.2956 280.8393 13.17650064164545","mean_motion":13.17650064,"eccentricity":0.0001936,"inclination_deg":87.9162,"raan_deg":10.4249,"arg_perigee_deg":79.2956,"mean_anomaly_deg":280.8393,"bstar":0.00010052,"rev_number":16454,"period_min":109.28546503679,"perigee_km":1192.2432742719,"apogee_km":1195.1750931142,"semimajor_km":7571.8461836931,"source":"CELESTRAK","updated_at":"2026-05-25T13:38:22.648188Z"}}